• în Republica Moldova
  • Lista ţărilor
  • Pe 7 zile
  • Temperatura apei
  • Hartă satelitară
  • Meteo pe hartă
  • Widget-uri
  • user-avatar
    Intrare

    Meteo pe oră la Ali Bayramli

    Astăzi, 30 Mai, Marţi

    Timp Temperatura Precipitaţii Vânt Presiune Umiditate
    00:00 +20°C° 0 mm 2 m/s 763 mmHg 70%
    01:00 +19°C° 0 mm 2 m/s 763 mmHg 72%
    02:00 +19°C° 0 mm 2 m/s 762 mmHg 73%
    03:00 +19°C° 0 mm 2 m/s 762 mmHg 74%
    04:00 +19°C° 0 mm 2 m/s 762 mmHg 72%
    05:00 +20°C° 0 mm 2 m/s 761 mmHg 69%
    06:00 +20°C° 0 mm 2 m/s 761 mmHg 67%
    07:00 +23°C° 0 mm 2 m/s 761 mmHg 60%
    08:00 +24°C° 0 mm 2 m/s 760 mmHg 54%
    09:00 +26°C° 0 mm 2 m/s 760 mmHg 48%
    10:00 +27°C° 0 mm 3 m/s 760 mmHg 45%
    11:00 +28°C° 0 mm 3 m/s 759 mmHg 41%
    12:00 +30°C° 0 mm 4 m/s 759 mmHg 38%
    13:00 +30°C° 0 mm 4 m/s 758 mmHg 38%
    14:00 +30°C° 0 mm 5 m/s 758 mmHg 37%
    15:00 +32°C° 0 mm 5 m/s 757 mmHg 36%
    16:00 +30°C° 0 mm 5 m/s 757 mmHg 40%
    17:00 +29°C° 0 mm 5 m/s 756 mmHg 43%
    18:00 +28°C° 0 mm 5 m/s 756 mmHg 47%
    19:00 +26°C° 0 mm 4 m/s 756 mmHg 52%
    20:00 +25°C° 0 mm 3 m/s 756 mmHg 57%
    21:00 +23°C° 0 mm 2 m/s 757 mmHg 63%
    22:00 +23°C° 0 mm 2 m/s 757 mmHg 64%
    23:00 +22°C° 0 mm 1 m/s 756 mmHg 66%

    Mâine, 31 Mai, Miercuri

    Timp Temperatura Precipitaţii Vânt Presiune Umiditate
    00:00 +22°C° 0 mm 1 m/s 756 mmHg 68%
    01:00 +22°C° 0 mm 1 m/s 756 mmHg 68%
    02:00 +21°C° 0 mm 1 m/s 756 mmHg 69%
    03:00 +21°C° 0 mm 1 m/s 756 mmHg 70%
    04:00 +22°C° 0 mm 1 m/s 756 mmHg 66%
    05:00 +23°C° 0 mm 1 m/s 756 mmHg 62%
    06:00 +25°C° 0 mm 1 m/s 756 mmHg 58%
    07:00 +26°C° 0 mm 1 m/s 756 mmHg 52%
    08:00 +28°C° 0 mm 2 m/s 756 mmHg 47%
    09:00 +29°C° 0 mm 2 m/s 756 mmHg 41%
    10:00 +31°C° 0 mm 2 m/s 755 mmHg 38%
    11:00 +33°C° 0 mm 3 m/s 755 mmHg 35%
    12:00 +34°C° 0 mm 3 m/s 754 mmHg 32%
    13:00 +34°C° 0 mm 4 m/s 754 mmHg 32%
    14:00 +34°C° 0 mm 5 m/s 754 mmHg 32%
    15:00 +34°C° 0 mm 5 m/s 753 mmHg 33%
    16:00 +33°C° 0 mm 6 m/s 753 mmHg 36%
    17:00 +30°C° 0 mm 6 m/s 753 mmHg 40%
    18:00 +29°C° 0 mm 7 m/s 753 mmHg 44%
    19:00 +27°C° 0 mm 6 m/s 753 mmHg 46%
    20:00 +26°C° 0 mm 5 m/s 754 mmHg 49%
    21:00 +25°C° 0 mm 4 m/s 754 mmHg 52%
    22:00 +23°C° 0,1 mm 4 m/s 754 mmHg 54%
    23:00 +23°C° 0,1 mm 4 m/s 754 mmHg 56%

    Poimâine, 1 Iunie, Joi

    Timp Temperatura Precipitaţii Vânt Presiune Umiditate
    00:00 +22°C° 0,1 mm 3 m/s 754 mmHg 59%
    01:00 +22°C° 0 mm 3 m/s 754 mmHg 61%
    02:00 +21°C° 0 mm 3 m/s 754 mmHg 64%
    03:00 +21°C° 0 mm 3 m/s 754 mmHg 66%
    04:00 +21°C° 0 mm 3 m/s 755 mmHg 65%
    05:00 +22°C° 0 mm 3 m/s 755 mmHg 63%
    06:00 +22°C° 0 mm 3 m/s 755 mmHg 61%
    07:00 +25°C° 0 mm 3 m/s 755 mmHg 53%
    08:00 +27°C° 0 mm 3 m/s 755 mmHg 45%
    09:00 +29°C° 0 mm 3 m/s 755 mmHg 38%
    10:00 +30°C° 0 mm 3 m/s 755 mmHg 35%
    11:00 +31°C° 0 mm 3 m/s 755 mmHg 32%
    12:00 +33°C° 0 mm 3 m/s 755 mmHg 30%
    13:00 +33°C° 0 mm 3 m/s 754 mmHg 31%
    14:00 +33°C° 0 mm 4 m/s 754 mmHg 31%
    15:00 +33°C° 0 mm 5 m/s 754 mmHg 32%
    16:00 +32°C° 0 mm 6 m/s 754 mmHg 36%
    17:00 +30°C° 0 mm 6 m/s 754 mmHg 39%
    18:00 +29°C° 0 mm 6 m/s 754 mmHg 43%
    19:00 +27°C° 0 mm 6 m/s 754 mmHg 47%
    20:00 +26°C° 0 mm 5 m/s 755 mmHg 50%
    21:00 +25°C° 0 mm 4 m/s 755 mmHg 53%
    22:00 +25°C° 0 mm 4 m/s 755 mmHg 56%
    23:00 +24°C° 0 mm 3 m/s 755 mmHg 59%

    2 Iunie, Vineri

    Timp Temperatura Precipitaţii Vânt Presiune Umiditate
    00:00 +22°C° 0 mm 3 m/s 755 mmHg 61%
    01:00 +23°C° 0 mm 2 m/s 755 mmHg 62%
    02:00 +21°C° 0 mm 2 m/s 755 mmHg 63%
    03:00 +21°C° 0 mm 2 m/s 755 mmHg 63%
    04:00 +23°C° 0 mm 2 m/s 756 mmHg 60%
    05:00 +23°C° 0 mm 2 m/s 756 mmHg 56%
    06:00 +24°C° 0 mm 2 m/s 756 mmHg 53%
    07:00 +26°C° 0 mm 2 m/s 757 mmHg 49%
    08:00 +27°C° 0 mm 2 m/s 757 mmHg 45%
    09:00 +28°C° 0 mm 2 m/s 757 mmHg 41%
    10:00 +30°C° 0 mm 2 m/s 757 mmHg 38%
    11:00 +31°C° 0 mm 1 m/s 756 mmHg 35%
    12:00 +32°C° 0 mm 1 m/s 756 mmHg 32%
    13:00 +32°C° 0 mm 2 m/s 756 mmHg 32%
    14:00 +33°C° 0 mm 4 m/s 756 mmHg 32%
    15:00 +33°C° 0 mm 5 m/s 756 mmHg 32%
    16:00 +32°C° 0 mm 5 m/s 756 mmHg 36%
    17:00 +30°C° 0 mm 6 m/s 756 mmHg 40%
    18:00 +28°C° 0 mm 6 m/s 756 mmHg 44%
    19:00 +27°C° 0 mm 5 m/s 757 mmHg 48%
    20:00 +26°C° 0 mm 4 m/s 757 mmHg 53%
    21:00 +25°C° 0 mm 4 m/s 758 mmHg 57%
    22:00 +24°C° 0,3 mm 3 m/s 758 mmHg 60%
    23:00 +24°C° 0,3 mm 2 m/s 758 mmHg 62%

    3 Iunie, Sâmbătă

    Timp Temperatura Precipitaţii Vânt Presiune Umiditate
    00:00 +23°C° 0,3 mm 2 m/s 758 mmHg 65%
    01:00 +23°C° 0 mm 1 m/s 759 mmHg 66%
    02:00 +23°C° 0 mm 1 m/s 759 mmHg 68%
    03:00 +22°C° 0 mm 1 m/s 759 mmHg 69%
    04:00 +23°C° 0 mm 1 m/s 759 mmHg 66%
    05:00 +24°C° 0 mm 1 m/s 760 mmHg 63%
    06:00 +24°C° 0 mm 1 m/s 760 mmHg 60%
    07:00 +26°C° 0 mm 1 m/s 760 mmHg 55%
    08:00 +27°C° 0 mm 1 m/s 760 mmHg 50%
    09:00 +28°C° 0 mm 2 m/s 761 mmHg 45%
    10:00 +29°C° 0 mm 2 m/s 760 mmHg 43%
    11:00 +29°C° 0 mm 3 m/s 760 mmHg 42%
    12:00 +30°C° 0 mm 4 m/s 760 mmHg 40%
    13:00 +30°C° 0 mm 4 m/s 760 mmHg 41%
    14:00 +30°C° 0 mm 5 m/s 760 mmHg 41%
    15:00 +30°C° 0 mm 5 m/s 759 mmHg 42%
    16:00 +29°C° 0 mm 5 m/s 759 mmHg 44%
    17:00 +28°C° 0 mm 5 m/s 759 mmHg 47%
    18:00 +27°C° 0 mm 5 m/s 759 mmHg 49%
    19:00 +26°C° 0 mm 4 m/s 760 mmHg 53%
    20:00 +25°C° 0 mm 3 m/s 760 mmHg 58%
    21:00 +24°C° 0 mm 2 m/s 760 mmHg 62%
    22:00 +23°C° 0 mm 2 m/s 760 mmHg 64%
    23:00 +23°C° 0 mm 2 m/s 760 mmHg 65%

    4 Iunie, Duminică

    Timp Temperatura Precipitaţii Vânt Presiune Umiditate
    00:00 +22°C° 0 mm 1 m/s 760 mmHg 67%
    01:00 +22°C° 0 mm 1 m/s 760 mmHg 68%
    02:00 +22°C° 0 mm 1 m/s 760 mmHg 68%
    03:00 +21°C° 0 mm 1 m/s 760 mmHg 68%
    04:00 +22°C° 0 mm 1 m/s 760 mmHg 65%
    05:00 +23°C° 0 mm 1 m/s 761 mmHg 62%
    06:00 +24°C° 0 mm 2 m/s 761 mmHg 59%
    07:00 +25°C° 0 mm 2 m/s 762 mmHg 53%
    08:00 +26°C° 0 mm 2 m/s 762 mmHg 47%
    09:00 +28°C° 0 mm 3 m/s 762 mmHg 41%
    10:00 +29°C° 0 mm 3 m/s 762 mmHg 39%
    11:00 +29°C° 0 mm 4 m/s 762 mmHg 37%
    12:00 +30°C° 0 mm 5 m/s 762 mmHg 34%
    13:00 +30°C° 0 mm 5 m/s 761 mmHg 35%
    14:00 +30°C° 0 mm 5 m/s 761 mmHg 35%
    15:00 +30°C° 0 mm 6 m/s 761 mmHg 36%
    16:00 +29°C° 0 mm 6 m/s 761 mmHg 38%
    17:00 +28°C° 0 mm 6 m/s 761 mmHg 41%
    18:00 +27°C° 0 mm 6 m/s 761 mmHg 43%
    19:00 +26°C° 0 mm 5 m/s 761 mmHg 48%
    20:00 +25°C° 0 mm 4 m/s 762 mmHg 52%
    21:00 +24°C° 0 mm 3 m/s 762 mmHg 57%
    22:00 +22°C° 0 mm 3 m/s 762 mmHg 60%
    23:00 +23°C° 0 mm 2 m/s 762 mmHg 62%
    Arată mai mult